Regional Weather Roundup
Issued by NWS

Home | Current Version | Previous Version | Text Only | Print | Product List | Glossary Off
Versions: 1 2 3 4 5 6 7 8 9 10 11 12 13 14 15 16 17 18 19 20 21 22 23 24 25 26 27 28 29 30 31 32 33 34 35 36 37 38 39 40 41 42 43 44 45 46 47 48 49 50

813
ASUS44 KLIX 301301
RWRLA
LOUISIANA WEATHER ROUNDUP
NATIONAL WEATHER SERVICE NEW ORLEANS LA
800 AM CDT THU OCT 30 2014

NOTE: "FAIR" INDICATES FEW OR NO CLOUDS BELOW 12,000 FEET WITH NO
      SIGNIFICANT WEATHER AND/OR OBSTRUCTIONS TO VISIBILITY.
      SKY/WX - SKY CONDITION AND SIGNIFICANT WEATHER.
      TMP - AIR TEMPERATURE.    DP   - DEWPOINT TEMPERATURE.
      RH  - RELATIVE HUMIDITY.  PRES - PRESSURE.
      HX  - HEAT INDEX.         WCI  - WIND CHILL INDEX.

*  THESE STATIONS ARE NOT NWS OR FAA STATIONS AND ARE NOT UNDER
   NWS QUALITY CONTROL.

LAZ040-048-061>063-065-066-069-301400-
SOUTHEAST LOUISIANA

CITY           SKY/WX    TMP DP  RH WIND       PRES   REMARKS
N.O. AUDUBON   NOT AVBL
N.O. INTL ARPT PTCLDY    63  46  54 NE13      30.10R
N.O. LAKEFRONT CLEAR     64  47  53 NE18      30.11R
N.O. DOWNTOWN* FAIR      63  41  45 NE5       30.11R
SLIDELL        CLEAR     53  46  77 N5        30.10R
BATON ROUGE    CLEAR     51  46  83 NE3       30.13R
BOOTHVILLE     CLEAR     69  60  73 NE10      30.07R
BELLE CHASSE   PTCLDY    62  45  53 N8        30.09R
BOGALUSA*        N/A     50  46  85 N5        30.14R
NEW ROADS*     FAIR      50  46  84 CALM      30.14R
GONZALES*      FAIR      55  49  82 CALM      30.11S
HAMMOND*       NOT AVBL
HOUMA*         PTCLDY    61  52  72 N8        30.09R
PORT FOURCHON* CLOUDY    70  59  68 NE14      30.10R

$$

LAZ041-044-053-054-301400-
SOUTHWEST LOUISIANA

CITY           SKY/WX    TMP DP  RH WIND       PRES   REMARKS
LAKE CHARLES   CLEAR     52  47  83 NE8       30.13R
LAFAYETTE      CLEAR     52  48  86 NE5       30.13R
PATTERSON      CLEAR     59  52  77 NE8       30.12R
SALT POINT       N/A     60  54  80 VRB3      30.09R
NEW IBERIA     CLEAR     57  49  74 NE7       30.13R
CHENAULT AIRPK NOT AVBL

$$

LAZ027-028-301400-
CENTRAL LOUISIANA

CITY           SKY/WX    TMP DP  RH WIND       PRES   REMARKS
FORT POLK      CLEAR     52  45  78 E3        30.13S
ALEXANDRIA INT PTCLDY    42  42 100 CALM      30.14R FOG
ALEXANDRIA     CLEAR     42  40  92 CALM      30.15R

$$

LAZ001-002-301400-
NORTHWEST LOUISIANA

CITY           SKY/WX    TMP DP  RH WIND       PRES   REMARKS
SHREVEPORT     CLEAR     44  43  96 CALM      30.16R
BARKSDALE AFB  CLEAR     44  43  97 CALM      30.16R
DTN SHREVEPORT CLEAR     44  43  96 CALM      30.16S FOG

$$

LAZ014-016-301400-
NORTHEAST LOUISIANA

CITY           SKY/WX    TMP DP  RH WIND       PRES   REMARKS
MONROE         FAIR      46  44  93 CALM      30.17R
TALLULAH       FOG       41  39  93 CALM      30.16S VSB 1/4

$$




USA.gov is the U.S. government's official web portal to all federal, state and local government web resources and services.